User: anonymous   Login
Location: Irma
(52.9170°N, 111.2330°W)
Time: 10:05:57
(UTC-07:00)
Language:

deb Chang Zheng 4 - Orbit

View from above orbital plane
View from above orbital plane
View from above satellite
View from above satellite

Ground track
Ground track

The orbit data is extracted from the following two-line orbital elements,

1 20847U 90081K   14331.12120062  .00019132  00000-0  32215-2 0  2472
2 20847 098.5778 142.5552 0020916 148.2883 347.6329 14.69439858268099
Epoch (UTC): 27 November 2014 02:54:31
Eccentricity: 0.0020916
inclination: 98.5778°
perigee height: 648 km
apogee height: 677 km
right ascension of ascending node: 142.5552°
argument of perigee: 148.2883°
revolutions per day: 14.69439858
mean anomaly at epoch: 347.6329°
orbit number at epoch: 26809

The dashed part of the orbit path shows where the satellite is in the earth's shadow,  

DLR